Time,TemperatureF,DewpointF,PressureIn,WindDirection,WindDirectionDegrees,WindSpeedMPH,WindSpeedGustMPH,Humidity,HourlyPrecipIn,Conditions,Clouds,dailyrainin,SoftwareType,DateUTC
2013-08-12 00:00:00,63.8,58.9,30.07,West,271,0.0,1.0,84,0.00,,---,0.00,VWS V14.00,2013-08-12 04:00:00,
2013-08-12 00:01:00,64.1,59.2,30.07,West,271,0.0,0.0,84,0.00,,---,0.00,VWS V14.00,2013-08-12 04:01:00,
2013-08-12 00:06:00,64.3,59.4,30.08,West,271,0.0,2.0,84,0.00,,---,0.00,VWS V14.00,2013-08-12 04:06:00,
2013-08-12 00:11:00,64.3,59.4,30.07,West,271,0.0,2.0,84,0.00,,---,0.00,VWS V14.00,2013-08-12 04:11:00,
2013-08-12 00:16:00,64.4,59.5,30.07,West,271,0.0,2.0,84,0.00,,---,0.00,VWS V14.00,2013-08-12 04:16:00,
2013-08-12 00:21:00,64.5,59.6,30.07,West,271,0.0,2.0,84,0.00,,---,0.00,VWS V14.00,2013-08-12 04:21:00,
2013-08-12 00:26:00,64.6,59.3,30.07,West,271,0.0,3.0,83,0.00,,---,0.00,VWS V14.00,2013-08-12 04:26:00,
2013-08-12 00:30:00,64.7,59.4,30.07,West,271,2.0,3.0,83,0.00,,---,0.00,VWS V14.00,2013-08-12 04:30:00,
2013-08-12 00:31:00,64.8,59.5,30.07,West,271,0.0,3.0,83,0.00,,---,0.00,VWS V14.00,2013-08-12 04:31:00,
2013-08-12 00:36:00,64.9,59.6,30.07,West,271,1.0,3.0,83,0.00,,---,0.00,VWS V14.00,2013-08-12 04:36:00,
2013-08-12 00:41:00,65.1,59.5,30.07,West,271,1.0,3.0,82,0.00,,---,0.00,VWS V14.00,2013-08-12 04:41:00,
2013-08-12 00:46:00,65.2,59.2,30.07,West,271,1.0,3.0,81,0.00,,---,0.00,VWS V14.00,2013-08-12 04:46:00,
2013-08-12 00:51:00,65.3,59.0,30.07,West,271,1.0,4.0,80,0.00,,---,0.00,VWS V14.00,2013-08-12 04:51:00,
2013-08-12 00:56:00,65.6,59.3,30.08,West,271,0.0,5.0,80,0.00,,---,0.00,VWS V14.00,2013-08-12 04:56:00,
2013-08-12 01:00:00,65.6,59.3,30.07,West,271,3.0,5.0,80,0.00,,---,0.00,VWS V14.00,2013-08-12 05:00:00,
2013-08-12 01:01:00,65.7,59.0,30.07,West,271,1.0,4.0,79,0.00,,---,0.00,VWS V14.00,2013-08-12 05:01:00,
2013-08-12 01:06:00,65.7,59.0,30.08,West,271,1.0,4.0,79,0.00,,---,0.00,VWS V14.00,2013-08-12 05:06:00,
2013-08-12 01:11:00,65.7,59.0,30.07,West,271,0.0,4.0,79,0.00,,---,0.00,VWS V14.00,2013-08-12 05:11:00,
2013-08-12 01:16:00,65.6,59.3,30.07,West,271,2.0,4.0,80,0.00,,---,0.00,VWS V14.00,2013-08-12 05:16:00,
2013-08-12 01:21:00,65.5,59.2,30.07,West,271,2.0,4.0,80,0.00,,---,0.00,VWS V14.00,2013-08-12 05:21:00,
2013-08-12 01:26:00,65.4,59.1,30.07,West,271,0.0,4.0,80,0.00,,---,0.00,VWS V14.00,2013-08-12 05:26:00,
2013-08-12 01:30:00,65.4,59.1,30.07,West,271,1.0,4.0,80,0.00,,---,0.00,VWS V14.00,2013-08-12 05:30:00,
2013-08-12 01:31:00,65.3,59.3,30.07,West,271,1.0,2.0,81,0.00,,---,0.00,VWS V14.00,2013-08-12 05:31:00,
2013-08-12 01:36:00,65.3,59.3,30.06,West,271,0.0,2.0,81,0.00,,---,0.00,VWS V14.00,2013-08-12 05:36:00,
2013-08-12 01:41:00,65.2,59.2,30.06,West,271,0.0,2.0,81,0.00,,---,0.00,VWS V14.00,2013-08-12 05:41:00,
2013-08-12 01:51:00,65.0,59.4,30.06,West,271,0.0,2.0,82,0.00,,---,0.00,VWS V14.00,2013-08-12 05:51:00,
2013-08-12 01:56:00,64.9,59.3,30.06,West,271,0.0,2.0,82,0.00,,---,0.00,VWS V14.00,2013-08-12 05:56:00,
2013-08-12 02:00:00,64.9,59.3,30.06,West,271,0.0,2.0,82,0.00,,---,0.00,VWS V14.00,2013-08-12 06:00:00,
2013-08-12 02:01:00,64.9,59.3,30.06,West,271,0.0,0.0,82,0.00,,---,0.00,VWS V14.00,2013-08-12 06:01:00,
2013-08-12 02:06:00,64.8,59.2,30.06,West,271,0.0,0.0,82,0.00,,---,0.00,VWS V14.00,2013-08-12 06:06:00,
2013-08-12 02:11:00,64.7,59.4,30.06,West,271,0.0,2.0,83,0.00,,---,0.00,VWS V14.00,2013-08-12 06:11:00,
2013-08-12 02:16:00,64.7,59.4,30.05,West,271,0.0,2.0,83,0.00,,---,0.00,VWS V14.00,2013-08-12 06:16:00,
2013-08-12 02:21:00,64.6,59.7,30.06,West,271,0.0,2.0,84,0.00,,---,0.00,VWS V14.00,2013-08-12 06:21:00,
2013-08-12 02:26:00,64.6,59.7,30.05,West,271,0.0,2.0,84,0.00,,---,0.00,VWS V14.00,2013-08-12 06:26:00,
2013-08-12 02:30:00,64.6,59.7,30.05,West,271,0.0,2.0,84,0.00,,---,0.00,VWS V14.00,2013-08-12 06:30:00,
2013-08-12 02:31:00,64.7,59.8,30.05,West,271,1.0,2.0,84,0.00,,---,0.00,VWS V14.00,2013-08-12 06:31:00,
2013-08-12 02:36:00,64.9,59.6,30.05,West,271,2.0,3.0,83,0.00,,---,0.00,VWS V14.00,2013-08-12 06:36:00,
2013-08-12 02:41:00,65.2,59.6,30.05,West,271,2.0,4.0,82,0.00,,---,0.00,VWS V14.00,2013-08-12 06:41:00,
2013-08-12 02:46:00,65.4,59.8,30.05,West,271,0.0,4.0,82,0.00,,---,0.00,VWS V14.00,2013-08-12 06:46:00,
2013-08-12 02:51:00,65.5,59.9,30.05,West,271,0.0,4.0,82,0.00,,---,0.00,VWS V14.00,2013-08-12 06:51:00,
2013-08-12 02:56:00,65.4,59.8,30.05,West,271,0.0,4.0,82,0.00,,---,0.00,VWS V14.00,2013-08-12 06:56:00,
2013-08-12 03:00:00,65.4,59.8,30.05,West,271,0.0,4.0,82,0.00,,---,0.00,VWS V14.00,2013-08-12 07:00:00,
2013-08-12 03:01:00,65.4,59.8,30.05,West,271,0.0,1.0,82,0.00,,---,0.00,VWS V14.00,2013-08-12 07:01:00,
2013-08-12 03:06:00,65.2,59.9,30.05,West,271,0.0,1.0,83,0.00,,---,0.00,VWS V14.00,2013-08-12 07:06:00,
2013-08-12 03:11:00,64.9,60.0,30.04,West,271,0.0,1.0,84,0.00,,---,0.00,VWS V14.00,2013-08-12 07:11:00,
2013-08-12 03:16:00,64.7,59.8,30.04,West,271,0.0,1.0,84,0.00,,---,0.00,VWS V14.00,2013-08-12 07:16:00,
2013-08-12 03:21:00,64.6,59.7,30.04,West,271,0.0,1.0,84,0.00,,---,0.00,VWS V14.00,2013-08-12 07:21:00,
2013-08-12 03:26:00,64.5,59.6,30.04,West,271,0.0,1.0,84,0.00,,---,0.00,VWS V14.00,2013-08-12 07:26:00,
2013-08-12 03:30:00,64.5,59.6,30.04,West,271,0.0,1.0,84,0.00,,---,0.00,VWS V14.00,2013-08-12 07:30:00,
2013-08-12 03:31:00,64.5,59.6,30.04,West,271,0.0,0.0,84,0.00,,---,0.00,VWS V14.00,2013-08-12 07:31:00,
2013-08-12 03:36:00,64.4,59.5,30.04,West,271,0.0,0.0,84,0.00,,---,0.00,VWS V14.00,2013-08-12 07:36:00,
2013-08-12 03:42:00,64.4,59.8,30.04,West,271,0.0,0.0,85,0.00,,---,0.00,VWS V14.00,2013-08-12 07:42:00,
2013-08-12 03:47:00,64.4,59.8,30.04,West,271,0.0,0.0,85,0.00,,---,0.00,VWS V14.00,2013-08-12 07:47:00,
2013-08-12 03:52:00,64.3,59.7,30.04,West,271,0.0,1.0,85,0.00,,---,0.00,VWS V14.00,2013-08-12 07:52:00,
2013-08-12 03:57:00,64.3,60.0,30.04,West,271,0.0,1.0,86,0.00,,---,0.00,VWS V14.00,2013-08-12 07:57:00,
2013-08-12 04:00:00,64.3,60.0,30.04,West,271,0.0,1.0,86,0.00,,---,0.00,VWS V14.00,2013-08-12 08:00:00,
2013-08-12 04:02:00,64.1,59.8,30.04,West,271,0.0,1.0,86,0.00,,---,0.00,VWS V14.00,2013-08-12 08:02:00,
2013-08-12 04:07:00,64.1,60.2,30.04,West,271,0.0,1.0,87,0.00,,---,0.00,VWS V14.00,2013-08-12 08:07:00,
2013-08-12 04:12:00,64.0,60.1,30.04,West,271,0.0,1.0,87,0.00,,---,0.00,VWS V14.00,2013-08-12 08:12:00,
2013-08-12 04:17:00,63.9,60.0,30.03,West,271,0.0,1.0,87,0.00,,---,0.00,VWS V14.00,2013-08-12 08:17:00,
2013-08-12 04:22:00,63.9,60.0,30.03,West,271,0.0,1.0,87,0.00,,---,0.00,VWS V14.00,2013-08-12 08:22:00,
2013-08-12 04:27:00,63.8,59.9,30.04,West,271,0.0,0.0,87,0.00,,---,0.00,VWS V14.00,2013-08-12 08:27:00,
2013-08-12 04:30:00,63.8,59.9,30.04,West,271,0.0,1.0,87,0.00,,---,0.00,VWS V14.00,2013-08-12 08:30:00,
2013-08-12 04:32:00,63.8,59.9,30.03,West,271,0.0,0.0,87,0.00,,---,0.00,VWS V14.00,2013-08-12 08:32:00,
2013-08-12 04:37:00,63.7,59.8,30.03,West,271,0.0,0.0,87,0.00,,---,0.00,VWS V14.00,2013-08-12 08:37:00,
2013-08-12 04:42:00,63.7,59.8,30.03,West,271,0.0,0.0,87,0.00,,---,0.00,VWS V14.00,2013-08-12 08:42:00,
2013-08-12 04:47:00,63.8,59.9,30.03,West,271,0.0,0.0,87,0.00,,---,0.00,VWS V14.00,2013-08-12 08:47:00,
2013-08-12 04:52:00,63.8,59.9,30.03,West,271,0.0,0.0,87,0.00,,---,0.00,VWS V14.00,2013-08-12 08:52:00,
2013-08-12 04:57:00,63.9,60.0,30.03,West,271,0.0,0.0,87,0.00,,---,0.00,VWS V14.00,2013-08-12 08:57:00,
2013-08-12 05:02:00,63.9,60.0,30.03,West,271,0.0,0.0,87,0.00,,---,0.00,VWS V14.00,2013-08-12 09:02:00,
2013-08-12 05:07:00,63.9,60.0,30.03,West,271,0.0,0.0,87,0.00,,---,0.00,VWS V14.00,2013-08-12 09:07:00,
2013-08-12 05:12:00,63.9,60.3,30.03,West,271,0.0,2.0,88,0.00,,---,0.00,VWS V14.00,2013-08-12 09:12:00,
2013-08-12 05:17:00,63.9,60.6,30.03,West,271,0.0,2.0,89,0.00,,---,0.00,VWS V14.00,2013-08-12 09:17:00,
2013-08-12 05:22:00,63.8,60.2,30.03,West,271,0.0,2.0,88,0.00,,---,0.00,VWS V14.00,2013-08-12 09:22:00,
2013-08-12 05:27:00,63.6,60.3,30.03,West,271,1.0,2.0,89,0.00,,---,0.00,VWS V14.00,2013-08-12 09:27:00,
2013-08-12 05:30:00,63.6,60.0,30.03,West,271,2.0,2.0,88,0.00,,---,0.00,VWS V14.00,2013-08-12 09:30:00,
2013-08-12 05:32:00,63.5,60.2,30.03,West,271,0.0,2.0,89,0.00,,---,0.00,VWS V14.00,2013-08-12 09:32:00,
2013-08-12 05:37:00,63.4,60.1,30.03,West,271,2.0,2.0,89,0.00,,---,0.00,VWS V14.00,2013-08-12 09:37:00,
2013-08-12 05:42:00,63.3,60.0,30.03,West,271,0.0,2.0,89,0.00,,---,0.00,VWS V14.00,2013-08-12 09:42:00,
2013-08-12 05:47:00,63.3,60.0,30.03,West,271,0.0,2.0,89,0.00,,---,0.00,VWS V14.00,2013-08-12 09:47:00,
2013-08-12 05:52:00,63.2,59.9,30.03,West,271,0.0,2.0,89,0.00,,---,0.00,VWS V14.00,2013-08-12 09:52:00,
2013-08-12 05:57:00,63.2,60.2,30.03,West,271,0.0,0.0,90,0.00,,---,0.00,VWS V14.00,2013-08-12 09:57:00,
2013-08-12 06:00:00,63.2,60.2,30.03,West,271,0.0,2.0,90,0.00,,---,0.00,VWS V14.00,2013-08-12 10:00:00,
2013-08-12 06:02:00,63.3,60.0,30.03,West,271,0.0,0.0,89,0.00,,---,0.00,VWS V14.00,2013-08-12 10:02:00,
2013-08-12 06:07:00,63.3,60.0,30.02,West,271,0.0,0.0,89,0.00,,---,0.00,VWS V14.00,2013-08-12 10:07:00,
2013-08-12 06:12:00,63.4,60.1,30.02,West,271,0.0,2.0,89,0.00,,---,0.00,VWS V14.00,2013-08-12 10:12:00,
2013-08-12 06:17:00,63.4,60.1,30.03,West,271,0.0,2.0,89,0.00,,---,0.00,VWS V14.00,2013-08-12 10:17:00,
2013-08-12 06:22:00,63.4,60.1,30.03,West,271,0.0,2.0,89,0.00,,---,0.00,VWS V14.00,2013-08-12 10:22:00,
2013-08-12 06:27:00,63.3,60.3,30.03,West,271,0.0,0.0,90,0.00,,---,0.00,VWS V14.00,2013-08-12 10:27:00,
2013-08-12 06:30:00,63.2,60.2,30.03,West,271,0.0,2.0,90,0.00,,---,0.00,VWS V14.00,2013-08-12 10:30:00,
2013-08-12 06:32:00,63.2,60.2,30.03,West,271,1.0,2.0,90,0.00,,---,0.00,VWS V14.00,2013-08-12 10:32:00,
2013-08-12 06:37:00,63.2,60.2,30.03,West,271,0.0,3.0,90,0.00,,---,0.00,VWS V14.00,2013-08-12 10:37:00,
2013-08-12 06:42:00,63.2,60.2,30.03,West,271,0.0,3.0,90,0.00,,---,0.00,VWS V14.00,2013-08-12 10:42:00,
2013-08-12 06:47:00,63.1,60.1,30.02,West,271,0.0,3.0,90,0.00,,---,0.00,VWS V14.00,2013-08-12 10:47:00,
2013-08-12 06:52:00,63.1,59.8,30.02,West,271,0.0,3.0,89,0.00,,---,0.00,VWS V14.00,2013-08-12 10:52:00,
2013-08-12 06:57:00,63.2,59.9,30.02,West,271,0.0,0.0,89,0.00,,---,0.00,VWS V14.00,2013-08-12 10:57:00,
2013-08-12 07:00:00,63.2,59.9,30.02,West,271,0.0,3.0,89,0.00,,---,0.00,VWS V14.00,2013-08-12 11:00:00,
2013-08-12 07:02:00,63.3,60.0,30.03,West,271,0.0,0.0,89,0.00,,---,0.00,VWS V14.00,2013-08-12 11:02:00,
2013-08-12 07:07:00,63.4,60.1,30.03,West,271,0.0,1.0,89,0.00,,---,0.00,VWS V14.00,2013-08-12 11:07:00,
2013-08-12 07:12:00,63.4,60.1,30.03,West,271,0.0,1.0,89,0.00,,---,0.00,VWS V14.00,2013-08-12 11:12:00,
2013-08-12 07:17:00,63.4,60.1,30.03,West,271,1.0,3.0,89,0.00,,---,0.00,VWS V14.00,2013-08-12 11:17:00,
2013-08-12 07:22:00,63.5,60.2,30.02,West,271,0.0,3.0,89,0.00,,---,0.00,VWS V14.00,2013-08-12 11:22:00,
2013-08-12 07:27:00,63.6,60.3,30.02,West,271,0.0,0.0,89,0.00,,---,0.00,VWS V14.00,2013-08-12 11:27:00,
2013-08-12 07:30:00,63.6,60.3,30.02,West,271,0.0,3.0,89,0.00,,---,0.00,VWS V14.00,2013-08-12 11:30:00,
2013-08-12 07:32:00,63.8,60.5,30.03,West,271,0.0,1.0,89,0.00,,---,0.00,VWS V14.00,2013-08-12 11:32:00,
2013-08-12 07:37:00,64.0,60.4,30.02,West,271,0.0,1.0,88,0.00,,---,0.00,VWS V14.00,2013-08-12 11:37:00,
2013-08-12 07:42:00,64.1,60.5,30.02,West,271,0.0,1.0,88,0.00,,---,0.00,VWS V14.00,2013-08-12 11:42:00,
2013-08-12 07:47:00,64.2,60.3,30.03,West,271,0.0,1.0,87,0.00,,---,0.00,VWS V14.00,2013-08-12 11:47:00,
2013-08-12 07:52:00,64.4,60.5,30.02,West,271,0.0,1.0,87,0.00,,---,0.00,VWS V14.00,2013-08-12 11:52:00,
2013-08-12 07:57:00,64.5,60.5,30.02,West,271,0.0,0.0,87,0.00,,---,0.00,VWS V14.00,2013-08-12 11:57:00,
2013-08-12 08:00:00,64.5,60.5,30.02,West,271,0.0,1.0,87,0.00,,---,0.00,VWS V14.00,2013-08-12 12:00:00,
2013-08-12 08:02:00,64.7,60.8,30.02,West,270,0.0,1.0,87,0.00,,---,0.00,VWS V14.00,2013-08-12 12:02:00,
2013-08-12 08:07:00,64.9,60.9,30.02,West,271,0.0,2.0,87,0.00,,---,0.00,VWS V14.00,2013-08-12 12:07:00,
2013-08-12 08:12:00,65.0,61.0,30.02,West,271,0.0,2.0,87,0.00,,---,0.00,VWS V14.00,2013-08-12 12:12:00,
2013-08-12 08:17:00,65.0,60.7,30.02,West,271,0.0,2.0,86,0.00,,---,0.00,VWS V14.00,2013-08-12 12:17:00,
2013-08-12 08:22:00,65.2,60.9,30.02,West,270,0.0,2.0,86,0.00,,---,0.00,VWS V14.00,2013-08-12 12:22:00,
2013-08-12 08:27:00,65.3,61.0,30.02,West,271,0.0,1.0,86,0.00,,---,0.00,VWS V14.00,2013-08-12 12:27:00,
2013-08-12 08:30:00,65.3,61.0,30.02,West,271,0.0,2.0,86,0.00,,---,0.00,VWS V14.00,2013-08-12 12:30:00,
2013-08-12 08:32:00,65.5,60.9,30.02,West,271,0.0,1.0,85,0.00,,---,0.00,VWS V14.00,2013-08-12 12:32:00,
2013-08-12 08:37:00,65.6,61.0,30.02,West,271,0.0,2.0,85,0.00,,---,0.00,VWS V14.00,2013-08-12 12:37:00,
2013-08-12 08:42:00,65.7,61.1,30.02,West,271,0.0,3.0,85,0.00,,---,0.00,VWS V14.00,2013-08-12 12:42:00,
2013-08-12 08:47:00,65.8,61.2,30.02,West,271,0.0,3.0,85,0.00,,---,0.00,VWS V14.00,2013-08-12 12:47:00,
2013-08-12 08:52:00,65.9,60.9,30.02,West,271,0.0,3.0,84,0.00,,---,0.00,VWS V14.00,2013-08-12 12:52:00,
2013-08-12 08:57:00,66.0,61.0,30.02,West,271,0.0,0.0,84,0.00,,---,0.00,VWS V14.00,2013-08-12 12:57:00,
2013-08-12 09:00:00,66.0,61.0,30.02,West,271,0.0,3.0,84,0.00,,---,0.00,VWS V14.00,2013-08-12 13:00:00,
2013-08-12 09:02:00,66.1,61.5,30.02,West,271,0.0,1.0,85,0.00,,---,0.00,VWS V14.00,2013-08-12 13:02:00,
2013-08-12 09:07:00,66.2,61.2,30.01,West,271,2.0,2.0,84,0.00,,---,0.00,VWS V14.00,2013-08-12 13:07:00,
2013-08-12 09:12:00,66.5,61.5,30.01,West,271,0.0,2.0,84,0.00,,---,0.00,VWS V14.00,2013-08-12 13:12:00,
2013-08-12 09:17:00,66.7,61.7,30.01,West,271,0.0,3.0,84,0.00,,---,0.00,VWS V14.00,2013-08-12 13:17:00,
2013-08-12 09:22:00,66.8,61.5,30.01,West,271,2.0,3.0,83,0.00,,---,0.00,VWS V14.00,2013-08-12 13:22:00,
2013-08-12 09:27:00,67.2,61.5,30.00,West,271,2.0,3.0,82,0.00,,---,0.00,VWS V14.00,2013-08-12 13:27:00,
2013-08-12 09:30:00,67.1,61.4,30.00,West,271,2.0,4.0,82,0.00,,---,0.00,VWS V14.00,2013-08-12 13:30:00,
2013-08-12 09:32:00,67.6,62.3,30.00,South,184,3.0,4.0,83,0.00,,---,0.00,VWS V14.00,2013-08-12 13:32:00,
2013-08-12 09:37:00,68.1,62.4,30.00,South,181,1.0,5.0,82,0.00,,---,0.00,VWS V14.00,2013-08-12 13:37:00,
2013-08-12 09:42:00,68.4,62.0,30.00,South,181,0.0,5.0,80,0.00,,---,0.00,VWS V14.00,2013-08-12 13:42:00,
2013-08-12 09:47:00,68.6,62.2,30.00,South,182,0.0,5.0,80,0.00,,---,0.00,VWS V14.00,2013-08-12 13:47:00,
2013-08-12 09:52:00,68.8,62.4,29.99,South,181,1.0,5.0,80,0.00,,---,0.00,VWS V14.00,2013-08-12 13:52:00,
2013-08-12 09:57:00,68.8,62.4,30.00,South,181,0.0,0.0,80,0.00,,---,0.00,VWS V14.00,2013-08-12 13:57:00,
2013-08-12 10:00:00,68.8,62.4,30.00,South,182,0.0,5.0,80,0.00,,---,0.00,VWS V14.00,2013-08-12 14:00:00,
2013-08-12 10:02:00,68.9,62.5,30.00,South,182,0.0,3.0,80,0.00,,---,0.00,VWS V14.00,2013-08-12 14:02:00,
2013-08-12 10:08:00,68.9,61.8,30.00,South,182,0.0,3.0,78,0.00,,---,0.00,VWS V14.00,2013-08-12 14:08:00,
2013-08-12 10:13:00,69.3,62.2,30.00,South,182,2.0,3.0,78,0.00,,---,0.00,VWS V14.00,2013-08-12 14:13:00,
2013-08-12 10:18:00,69.9,62.7,29.99,South,180,0.0,4.0,78,0.00,,---,0.00,VWS V14.00,2013-08-12 14:18:00,
2013-08-12 10:23:00,70.5,62.2,29.99,South,181,2.0,4.0,75,0.00,,---,0.00,VWS V14.00,2013-08-12 14:23:00,
2013-08-12 10:28:00,70.9,62.6,29.99,South,180,1.0,2.0,75,0.00,,---,0.00,VWS V14.00,2013-08-12 14:28:00,
2013-08-12 10:30:00,70.8,62.5,29.99,South,180,0.0,4.0,75,0.00,,---,0.00,VWS V14.00,2013-08-12 14:30:00,
2013-08-12 10:33:00,71.1,62.4,29.99,South,175,2.0,5.0,74,0.00,,---,0.00,VWS V14.00,2013-08-12 14:33:00,
2013-08-12 10:38:00,71.3,62.6,29.99,SSE,167,2.0,5.0,74,0.00,,---,0.00,VWS V14.00,2013-08-12 14:38:00,
2013-08-12 10:43:00,71.6,62.9,29.99,SSE,167,0.0,5.0,74,0.00,,---,0.00,VWS V14.00,2013-08-12 14:43:00,
2013-08-12 10:48:00,72.5,63.0,29.99,SSE,167,0.0,5.0,72,0.00,,---,0.00,VWS V14.00,2013-08-12 14:48:00,
2013-08-12 10:53:00,72.9,62.5,29.99,SSE,165,2.0,6.0,70,0.00,,---,0.00,VWS V14.00,2013-08-12 14:53:00,
2013-08-12 10:58:00,72.9,61.7,29.99,SSE,163,5.0,5.0,68,0.00,,---,0.00,VWS V14.00,2013-08-12 14:58:00,
2013-08-12 11:00:00,72.9,62.1,29.99,SSE,163,2.0,6.0,69,0.00,,---,0.00,VWS V14.00,2013-08-12 15:00:00,
2013-08-12 11:03:00,73.0,61.4,29.99,SSE,163,4.0,5.0,67,0.00,,---,0.00,VWS V14.00,2013-08-12 15:03:00,
2013-08-12 11:08:00,72.8,61.6,29.99,SSE,163,1.0,6.0,68,0.00,,---,0.00,VWS V14.00,2013-08-12 15:08:00,
2013-08-12 11:13:00,72.8,62.0,29.99,SSE,161,2.0,6.0,69,0.00,,---,0.00,VWS V14.00,2013-08-12 15:13:00,
2013-08-12 11:18:00,72.5,61.8,29.99,SSE,151,2.0,8.0,69,0.00,,---,0.00,VWS V14.00,2013-08-12 15:18:00,
2013-08-12 11:23:00,72.6,61.4,29.99,SE,138,1.0,8.0,68,0.00,,---,0.00,VWS V14.00,2013-08-12 15:23:00,
2013-08-12 11:28:00,72.6,61.4,29.99,SSW,196,2.0,4.0,68,0.00,,---,0.00,VWS V14.00,2013-08-12 15:28:00,
2013-08-12 11:30:00,72.6,61.0,29.99,SSW,196,3.0,8.0,67,0.00,,---,0.00,VWS V14.00,2013-08-12 15:30:00,
2013-08-12 11:33:00,73.0,61.4,29.99,SSW,207,4.0,6.0,67,0.00,,---,0.00,VWS V14.00,2013-08-12 15:33:00,
2013-08-12 11:38:00,73.1,60.7,29.98,SSW,198,2.0,6.0,65,0.00,,---,0.00,VWS V14.00,2013-08-12 15:38:00,
2013-08-12 11:43:00,72.8,60.8,29.98,South,188,3.0,6.0,66,0.00,,---,0.00,VWS V14.00,2013-08-12 15:43:00,
2013-08-12 11:48:00,72.8,60.4,29.98,SSE,158,1.0,7.0,65,0.00,,---,0.00,VWS V14.00,2013-08-12 15:48:00,
2013-08-12 11:53:00,73.4,60.9,29.98,SE,145,4.0,7.0,65,0.00,,---,0.00,VWS V14.00,2013-08-12 15:53:00,
2013-08-12 11:58:00,74.0,61.1,29.98,SSE,148,1.0,4.0,64,0.00,,---,0.00,VWS V14.00,2013-08-12 15:58:00,
2013-08-12 12:00:00,74.0,61.1,29.98,SSE,149,1.0,7.0,64,0.00,,---,0.00,VWS V14.00,2013-08-12 16:00:00,
2013-08-12 12:03:00,74.7,61.3,29.98,ESE,107,2.0,6.0,63,0.00,,---,0.00,VWS V14.00,2013-08-12 16:03:00,
2013-08-12 12:13:00,75.7,60.8,29.97,ESE,111,2.0,7.0,60,0.00,,---,0.00,VWS V14.00,2013-08-12 16:13:00,
2013-08-12 12:18:00,76.0,61.1,29.97,South,180,2.0,7.0,60,0.00,,---,0.00,VWS V14.00,2013-08-12 16:18:00,
2013-08-12 12:23:00,75.5,60.7,29.97,WSW,243,2.0,8.0,60,0.00,,---,0.00,VWS V14.00,2013-08-12 16:23:00,
2013-08-12 12:28:00,75.4,61.5,29.97,SW,232,4.0,9.0,62,0.00,,---,0.00,VWS V14.00,2013-08-12 16:28:00,
2013-08-12 12:30:00,75.3,60.9,29.97,ESE,109,2.0,8.0,61,0.00,,---,0.00,VWS V14.00,2013-08-12 16:30:00,
2013-08-12 12:33:00,75.5,61.1,29.97,SE,143,2.0,9.0,61,0.00,,---,0.00,VWS V14.00,2013-08-12 16:33:00,
2013-08-12 12:38:00,75.6,62.1,29.97,SSE,151,5.0,9.0,63,0.00,,---,0.00,VWS V14.00,2013-08-12 16:38:00,
2013-08-12 12:43:00,76.0,62.5,29.97,SSW,200,2.0,9.0,63,0.00,,---,0.00,VWS V14.00,2013-08-12 16:43:00,
2013-08-12 12:48:00,76.0,62.0,29.97,SW,223,6.0,9.0,62,0.00,,---,0.00,VWS V14.00,2013-08-12 16:48:00,
2013-08-12 12:53:00,75.3,62.3,29.97,SSW,210,3.0,9.0,64,0.00,,---,0.00,VWS V14.00,2013-08-12 16:53:00,
2013-08-12 12:58:00,75.3,62.7,29.96,SSW,202,6.0,7.0,65,0.00,,---,0.00,VWS V14.00,2013-08-12 16:58:00,
2013-08-12 13:00:00,75.3,62.7,29.96,SSW,211,5.0,9.0,65,0.00,,---,0.00,VWS V14.00,2013-08-12 17:00:00,
2013-08-12 13:03:00,75.2,63.1,29.96,SSW,193,3.0,7.0,66,0.00,,---,0.00,VWS V14.00,2013-08-12 17:03:00,
2013-08-12 13:08:00,75.8,63.6,29.96,SW,218,7.0,8.0,66,0.00,,---,0.00,VWS V14.00,2013-08-12 17:08:00,
2013-08-12 13:13:00,75.7,63.1,29.96,SW,224,1.0,9.0,65,0.00,,---,0.00,VWS V14.00,2013-08-12 17:13:00,
2013-08-12 13:18:00,76.0,63.8,29.96,SW,217,3.0,9.0,66,0.00,,---,0.00,VWS V14.00,2013-08-12 17:18:00,
2013-08-12 13:23:00,75.7,64.0,29.96,SSW,205,2.0,9.0,67,0.00,,---,0.00,VWS V14.00,2013-08-12 17:23:00,
2013-08-12 13:28:00,75.4,63.7,29.96,SSW,211,5.0,7.0,67,0.00,,---,0.00,VWS V14.00,2013-08-12 17:28:00,
2013-08-12 13:30:00,75.5,64.2,29.96,SW,221,6.0,9.0,68,0.00,,---,0.00,VWS V14.00,2013-08-12 17:30:00,
2013-08-12 13:33:00,75.4,64.5,29.95,SSW,209,3.0,8.0,69,0.00,,---,0.00,VWS V14.00,2013-08-12 17:33:00,
2013-08-12 13:38:00,75.9,64.2,29.95,South,182,4.0,8.0,67,0.00,,---,0.00,VWS V14.00,2013-08-12 17:38:00,
2013-08-12 13:43:00,76.7,64.5,29.95,South,180,3.0,8.0,66,0.00,,---,0.00,VWS V14.00,2013-08-12 17:43:00,
2013-08-12 13:48:00,76.9,64.2,29.95,SSW,210,3.0,8.0,65,0.00,,---,0.00,VWS V14.00,2013-08-12 17:48:00,
2013-08-12 13:53:00,76.8,64.6,29.95,SSE,167,4.0,8.0,66,0.00,,---,0.00,VWS V14.00,2013-08-12 17:53:00,
2013-08-12 13:58:00,76.6,63.5,29.95,West,263,4.0,6.0,64,0.00,,---,0.00,VWS V14.00,2013-08-12 17:58:00,
2013-08-12 14:00:00,76.8,63.7,29.95,WSW,251,5.0,9.0,64,0.00,,---,0.00,VWS V14.00,2013-08-12 18:00:00,
2013-08-12 14:03:00,76.2,64.0,29.95,SW,217,4.0,9.0,66,0.00,,---,0.00,VWS V14.00,2013-08-12 18:03:00,
2013-08-12 14:08:00,76.2,64.4,29.95,West,270,0.0,9.0,67,0.00,,---,0.00,VWS V14.00,2013-08-12 18:08:00,
2013-08-12 14:18:00,75.9,64.2,29.95,SSW,206,4.0,9.0,67,0.00,,---,0.00,VWS V14.00,2013-08-12 18:18:00,
2013-08-12 14:23:00,76.4,65.1,29.94,SSW,192,4.0,9.0,68,0.00,,---,0.00,VWS V14.00,2013-08-12 18:23:00,
2013-08-12 14:28:00,76.0,64.7,29.94,SW,217,7.0,8.0,68,0.00,,---,0.00,VWS V14.00,2013-08-12 18:28:00,
2013-08-12 14:30:00,76.2,64.9,29.94,SW,222,7.0,9.0,68,0.00,,---,0.00,VWS V14.00,2013-08-12 18:30:00,
2013-08-12 14:33:00,76.0,64.7,29.94,SSW,209,5.0,8.0,68,0.00,,---,0.00,VWS V14.00,2013-08-12 18:33:00,
2013-08-12 14:38:00,76.9,64.2,29.94,SSW,199,5.0,8.0,65,0.00,,---,0.00,VWS V14.00,2013-08-12 18:38:00,
2013-08-12 14:44:00,77.3,64.6,29.94,WSW,238,7.0,10.0,65,0.00,,---,0.00,VWS V14.00,2013-08-12 18:44:00,
2013-08-12 14:49:00,77.6,64.5,29.94,WSW,254,6.0,10.0,64,0.00,,---,0.00,VWS V14.00,2013-08-12 18:49:00,
2013-08-12 14:54:00,77.7,64.6,29.93,West,279,4.0,10.0,64,0.00,,---,0.00,VWS V14.00,2013-08-12 18:54:00,
2013-08-12 14:59:00,77.8,64.7,29.93,WSW,255,6.0,6.0,64,0.00,,---,0.00,VWS V14.00,2013-08-12 18:59:00,
2013-08-12 15:00:00,77.8,64.7,29.94,SSW,211,3.0,10.0,64,0.00,,---,0.00,VWS V14.00,2013-08-12 19:00:00,
2013-08-12 15:04:00,77.8,64.7,29.93,SW,220,4.0,9.0,64,0.00,,---,0.00,VWS V14.00,2013-08-12 19:04:00,
2013-08-12 15:09:00,77.5,64.8,29.93,WSW,249,3.0,9.0,65,0.00,,---,0.00,VWS V14.00,2013-08-12 19:09:00,
2013-08-12 15:14:00,77.7,65.0,29.93,WSW,246,1.0,9.0,65,0.00,,---,0.00,VWS V14.00,2013-08-12 19:14:00,
2013-08-12 15:19:00,78.1,63.6,29.93,West,261,5.0,9.0,61,0.00,,---,0.00,VWS V14.00,2013-08-12 19:19:00,
2013-08-12 15:24:00,78.4,65.7,29.92,SSW,201,6.0,9.0,65,0.00,,---,0.00,VWS V14.00,2013-08-12 19:24:00,
2013-08-12 15:29:00,77.6,64.9,29.92,SW,217,7.0,11.0,65,0.00,,---,0.00,VWS V14.00,2013-08-12 19:29:00,
2013-08-12 15:30:00,78.0,64.8,29.92,SW,228,8.0,11.0,64,0.00,,---,0.00,VWS V14.00,2013-08-12 19:30:00,
2013-08-12 15:34:00,76.9,64.7,29.92,SW,226,2.0,11.0,66,0.00,,---,0.00,VWS V14.00,2013-08-12 19:34:00,
2013-08-12 15:39:00,76.6,65.3,29.92,SSW,205,5.0,11.0,68,0.00,,---,0.00,VWS V14.00,2013-08-12 19:39:00,
2013-08-12 15:44:00,76.7,65.8,29.91,SW,225,2.0,11.0,69,0.00,,---,0.00,VWS V14.00,2013-08-12 19:44:00,
2013-08-12 15:49:00,77.0,66.5,29.91,SW,219,6.0,11.0,70,0.00,,---,0.00,VWS V14.00,2013-08-12 19:49:00,
2013-08-12 15:54:00,77.3,66.8,29.91,SW,224,10.0,12.0,70,0.00,,---,0.00,VWS V14.00,2013-08-12 19:54:00,
2013-08-12 15:59:00,77.3,65.9,29.91,SSW,207,6.0,9.0,68,0.00,,---,0.00,VWS V14.00,2013-08-12 19:59:00,
2013-08-12 16:00:00,77.2,66.2,29.91,South,173,2.0,12.0,69,0.00,,---,0.00,VWS V14.00,2013-08-12 20:00:00,
2013-08-12 16:04:00,77.4,66.0,29.91,WSW,237,3.0,12.0,68,0.00,,---,0.00,VWS V14.00,2013-08-12 20:04:00,
2013-08-12 16:09:00,77.0,65.6,29.91,SW,216,4.0,12.0,68,0.00,,---,0.00,VWS V14.00,2013-08-12 20:09:00,
2013-08-12 16:14:00,76.6,66.1,29.91,SW,223,7.0,12.0,70,0.00,,---,0.00,VWS V14.00,2013-08-12 20:14:00,
2013-08-12 16:19:00,76.8,66.3,29.91,SSW,202,5.0,12.0,70,0.00,,---,0.00,VWS V14.00,2013-08-12 20:19:00,
2013-08-12 16:24:00,77.0,66.5,29.91,SW,217,8.0,12.0,70,0.00,,---,0.00,VWS V14.00,2013-08-12 20:24:00,
2013-08-12 16:29:00,76.9,66.0,29.90,South,187,6.0,7.0,69,0.00,,---,0.00,VWS V14.00,2013-08-12 20:29:00,
2013-08-12 16:30:00,76.9,66.0,29.90,SSW,205,5.0,13.0,69,0.00,,---,0.00,VWS V14.00,2013-08-12 20:30:00,
2013-08-12 16:34:00,76.6,66.5,29.90,SSW,195,5.0,9.0,71,0.00,,---,0.00,VWS V14.00,2013-08-12 20:34:00,
2013-08-12 16:39:00,76.6,66.1,29.90,SW,217,4.0,9.0,70,0.00,,---,0.00,VWS V14.00,2013-08-12 20:39:00,
2013-08-12 16:44:00,76.9,66.4,29.90,SSW,196,6.0,9.0,70,0.00,,---,0.00,VWS V14.00,2013-08-12 20:44:00,
2013-08-12 16:49:00,77.1,66.6,29.90,SW,214,2.0,10.0,70,0.00,,---,0.00,VWS V14.00,2013-08-12 20:49:00,
2013-08-12 16:54:00,77.3,65.9,29.89,SSW,211,8.0,10.0,68,0.00,,---,0.00,VWS V14.00,2013-08-12 20:54:00,
2013-08-12 16:59:00,77.2,65.8,29.89,SW,220,4.0,9.0,68,0.00,,---,0.00,VWS V14.00,2013-08-12 20:59:00,
2013-08-12 17:00:00,77.2,65.4,29.89,SW,215,4.0,10.0,67,0.00,,---,0.00,VWS V14.00,2013-08-12 21:00:00,
2013-08-12 17:04:00,77.5,66.1,29.89,SSW,209,2.0,11.0,68,0.00,,---,0.00,VWS V14.00,2013-08-12 21:04:00,
2013-08-12 17:09:00,77.7,66.7,29.89,South,190,3.0,11.0,69,0.00,,---,0.00,VWS V14.00,2013-08-12 21:09:00,
2013-08-12 17:14:00,76.9,66.4,29.89,SSW,200,6.0,13.0,70,0.00,,---,0.00,VWS V14.00,2013-08-12 21:14:00,
2013-08-12 17:19:00,76.6,66.5,29.89,SW,218,6.0,13.0,71,0.00,,---,0.00,VWS V14.00,2013-08-12 21:19:00,
2013-08-12 17:24:00,77.1,66.6,29.89,WSW,251,8.0,13.0,70,0.00,,---,0.00,VWS V14.00,2013-08-12 21:24:00,
2013-08-12 17:29:00,77.2,66.2,29.89,SSW,201,11.0,11.0,69,0.00,,---,0.00,VWS V14.00,2013-08-12 21:29:00,
2013-08-12 17:30:00,77.5,66.9,29.89,WSW,250,6.0,13.0,70,0.00,,---,0.00,VWS V14.00,2013-08-12 21:30:00,
2013-08-12 17:34:00,76.5,66.4,29.88,SSW,213,4.0,12.0,71,0.00,,---,0.00,VWS V14.00,2013-08-12 21:34:00,
2013-08-12 17:39:00,76.0,66.3,29.88,SSW,207,4.0,12.0,72,0.00,,---,0.00,VWS V14.00,2013-08-12 21:39:00,
2013-08-12 17:44:00,76.0,66.3,29.88,SSW,212,7.0,13.0,72,0.00,,---,0.00,VWS V14.00,2013-08-12 21:44:00,
2013-08-12 17:50:00,75.9,66.6,29.88,SSW,196,8.0,13.0,73,0.00,,---,0.00,VWS V14.00,2013-08-12 21:50:00,
2013-08-12 17:55:00,75.7,66.4,29.88,SW,215,10.0,13.0,73,0.00,,---,0.00,VWS V14.00,2013-08-12 21:55:00,
2013-08-12 18:00:00,76.1,66.4,29.88,SW,217,5.0,10.0,72,0.00,,---,0.00,VWS V14.00,2013-08-12 22:00:00,
2013-08-12 18:05:00,76.3,66.6,29.88,SW,221,8.0,12.0,72,0.00,,---,0.00,VWS V14.00,2013-08-12 22:05:00,
2013-08-12 18:10:00,76.0,66.3,29.87,SW,223,7.0,12.0,72,0.00,,---,0.00,VWS V14.00,2013-08-12 22:10:00,
2013-08-12 18:15:00,76.0,66.3,29.87,SSE,165,8.0,12.0,72,0.00,,---,0.00,VWS V14.00,2013-08-12 22:15:00,
2013-08-12 18:20:00,76.3,67.0,29.87,SSW,201,6.0,12.0,73,0.00,,---,0.00,VWS V14.00,2013-08-12 22:20:00,
2013-08-12 18:25:00,76.4,66.7,29.87,SW,221,8.0,12.0,72,0.00,,---,0.00,VWS V14.00,2013-08-12 22:25:00,
2013-08-12 18:30:00,76.0,66.3,29.87,SW,233,6.0,13.0,72,0.00,,---,0.00,VWS V14.00,2013-08-12 22:30:00,
2013-08-12 18:35:00,75.6,66.3,29.87,SW,224,12.0,13.0,73,0.00,,---,0.00,VWS V14.00,2013-08-12 22:35:00,
2013-08-12 18:40:00,75.3,66.8,29.87,SW,222,11.0,13.0,75,0.00,,---,0.00,VWS V14.00,2013-08-12 22:40:00,
2013-08-12 18:45:00,75.1,66.6,29.87,SW,216,6.0,13.0,75,0.00,,---,0.00,VWS V14.00,2013-08-12 22:45:00,
2013-08-12 18:50:00,75.1,66.2,29.87,SW,217,7.0,13.0,74,0.00,,---,0.00,VWS V14.00,2013-08-12 22:50:00,
2013-08-12 18:55:00,75.1,66.6,29.87,SW,215,10.0,13.0,75,0.00,,---,0.00,VWS V14.00,2013-08-12 22:55:00,
2013-08-12 19:00:00,74.8,66.3,29.87,SW,217,6.0,12.0,75,0.00,,---,0.00,VWS V14.00,2013-08-12 23:00:00,
2013-08-12 19:05:00,74.7,66.3,29.86,South,180,3.0,12.0,75,0.00,,---,0.00,VWS V14.00,2013-08-12 23:05:00,
2013-08-12 19:10:00,74.6,66.2,29.86,SW,214,8.0,12.0,75,0.00,,---,0.00,VWS V14.00,2013-08-12 23:10:00,
2013-08-12 19:15:00,74.4,66.3,29.86,SW,232,2.0,12.0,76,0.00,,---,0.00,VWS V14.00,2013-08-12 23:15:00,
2013-08-12 19:20:00,74.5,66.4,29.86,SSW,202,4.0,12.0,76,0.00,,---,0.00,VWS V14.00,2013-08-12 23:20:00,
2013-08-12 19:25:00,74.6,66.5,29.86,SSW,200,2.0,12.0,76,0.00,,---,0.00,VWS V14.00,2013-08-12 23:25:00,
2013-08-12 19:30:00,74.5,66.4,29.86,SW,216,5.0,8.0,76,0.00,,---,0.00,VWS V14.00,2013-08-12 23:30:00,
2013-08-12 19:35:00,74.3,66.2,29.85,SSW,199,4.0,8.0,76,0.00,,---,0.00,VWS V14.00,2013-08-12 23:35:00,
2013-08-12 19:40:00,74.1,66.1,29.85,SW,219,4.0,8.0,76,0.00,,---,0.00,VWS V14.00,2013-08-12 23:40:00,
2013-08-12 19:45:00,74.0,66.3,29.85,South,188,5.0,8.0,77,0.00,,---,0.00,VWS V14.00,2013-08-12 23:45:00,
2013-08-12 19:50:00,73.8,66.5,29.85,SSW,205,2.0,8.0,78,0.00,,---,0.00,VWS V14.00,2013-08-12 23:50:00,
2013-08-12 19:55:00,73.7,66.4,29.85,SSW,202,6.0,8.0,78,0.00,,---,0.00,VWS V14.00,2013-08-12 23:55:00,
2013-08-12 20:00:00,73.5,66.2,29.84,SSW,207,2.0,7.0,78,0.00,,---,0.00,VWS V14.00,2013-08-13 00:00:00,
2013-08-12 20:05:00,73.2,65.9,29.84,South,172,2.0,7.0,78,0.00,,---,0.00,VWS V14.00,2013-08-13 00:05:00,
2013-08-12 20:10:00,72.9,66.0,29.84,South,174,4.0,7.0,79,0.00,,---,0.00,VWS V14.00,2013-08-13 00:10:00,
2013-08-12 20:15:00,72.4,65.9,29.85,SSW,202,2.0,7.0,80,0.00,,---,0.00,VWS V14.00,2013-08-13 00:15:00,
2013-08-12 20:20:00,71.9,65.8,29.85,South,187,5.0,7.0,81,0.00,,---,0.00,VWS V14.00,2013-08-13 00:20:00,
2013-08-12 20:25:00,71.6,65.8,29.85,South,189,4.0,7.0,82,0.00,,---,0.00,VWS V14.00,2013-08-13 00:25:00,
2013-08-12 20:30:00,71.3,65.9,29.85,SSW,193,1.0,5.0,83,0.00,,---,0.00,VWS V14.00,2013-08-13 00:30:00,
2013-08-12 20:35:00,71.0,65.6,29.85,SSW,210,5.0,8.0,83,0.00,,---,0.00,VWS V14.00,2013-08-13 00:35:00,
2013-08-12 20:40:00,70.7,65.6,29.85,SW,217,2.0,8.0,84,0.00,,---,0.00,VWS V14.00,2013-08-13 00:40:00,
2013-08-12 20:45:00,70.3,65.2,29.85,SSW,211,5.0,8.0,84,0.00,,---,0.00,VWS V14.00,2013-08-13 00:45:00,
2013-08-12 20:50:00,70.1,65.4,29.85,SSW,213,2.0,8.0,85,0.00,,---,0.00,VWS V14.00,2013-08-13 00:50:00,
2013-08-12 20:55:00,69.8,65.1,29.85,SW,215,3.0,8.0,85,0.00,,---,0.00,VWS V14.00,2013-08-13 00:55:00,
2013-08-12 21:00:00,69.7,65.0,29.85,SW,214,4.0,8.0,85,0.00,,---,0.00,VWS V14.00,2013-08-13 01:00:00,
2013-08-12 21:05:00,69.5,65.1,29.85,SW,220,5.0,8.0,86,0.00,,---,0.00,VWS V14.00,2013-08-13 01:05:00,
2013-08-12 21:10:00,69.4,65.0,29.85,SW,219,2.0,8.0,86,0.00,,---,0.00,VWS V14.00,2013-08-13 01:10:00,
2013-08-12 21:15:00,69.2,64.8,29.85,SW,219,0.0,8.0,86,0.00,,---,0.00,VWS V14.00,2013-08-13 01:15:00,
2013-08-12 21:20:00,68.9,64.9,29.85,SW,215,0.0,8.0,87,0.00,,---,0.00,VWS V14.00,2013-08-13 01:20:00,
2013-08-12 21:25:00,68.8,64.8,29.85,SSW,204,5.0,8.0,87,0.00,,---,0.00,VWS V14.00,2013-08-13 01:25:00,
2013-08-12 21:30:00,68.6,64.6,29.86,SSW,213,3.0,4.0,87,0.00,,---,0.00,VWS V14.00,2013-08-13 01:30:00,
2013-08-12 21:35:00,68.5,64.8,29.86,SSW,208,3.0,5.0,88,0.00,,---,0.00,VWS V14.00,2013-08-13 01:35:00,
2013-08-12 21:40:00,68.3,64.6,29.86,SSW,207,3.0,5.0,88,0.00,,---,0.00,VWS V14.00,2013-08-13 01:40:00,
2013-08-12 21:45:00,68.2,64.5,29.87,North,5,7.0,8.0,88,0.00,,---,0.00,VWS V14.00,2013-08-13 01:45:00,
2013-08-12 21:50:00,68.3,64.3,29.87,NE,36,7.0,9.0,87,0.00,,---,0.00,VWS V14.00,2013-08-13 01:50:00,
2013-08-12 21:55:00,68.8,63.4,29.87,NNE,12,2.0,9.0,83,0.00,,---,0.00,VWS V14.00,2013-08-13 01:55:00,
2013-08-12 22:00:00,69.2,64.2,29.87,NNE,12,0.0,3.0,84,0.00,,---,0.00,VWS V14.00,2013-08-13 02:00:00,
2013-08-12 22:05:00,69.5,64.5,29.88,NNE,12,0.0,3.0,84,0.00,,---,0.00,VWS V14.00,2013-08-13 02:05:00,
2013-08-12 22:10:00,69.6,64.6,29.88,North,11,2.0,3.0,84,0.00,,---,0.00,VWS V14.00,2013-08-13 02:10:00,
2013-08-12 22:15:00,69.7,64.7,29.88,NNE,12,1.0,3.0,84,0.00,,---,0.00,VWS V14.00,2013-08-13 02:15:00,
2013-08-12 22:20:00,69.7,64.7,29.88,NNE,12,1.0,3.0,84,0.00,,---,0.00,VWS V14.00,2013-08-13 02:20:00,
2013-08-12 22:25:00,69.8,65.1,29.88,West,277,1.0,4.0,85,0.00,,---,0.00,VWS V14.00,2013-08-13 02:25:00,
2013-08-12 22:30:00,69.8,64.8,29.88,West,277,0.0,2.0,84,0.00,,---,0.00,VWS V14.00,2013-08-13 02:30:00,
2013-08-12 22:35:00,69.8,64.8,29.88,West,277,0.0,2.0,84,0.00,,---,0.00,VWS V14.00,2013-08-13 02:35:00,
2013-08-12 22:40:00,69.8,64.8,29.88,West,277,0.0,2.0,84,0.00,,---,0.00,VWS V14.00,2013-08-13 02:40:00,
2013-08-12 22:45:00,69.7,64.7,29.88,West,277,0.0,2.0,84,0.00,,---,0.00,VWS V14.00,2013-08-13 02:45:00,
2013-08-12 22:50:00,69.5,64.8,29.88,West,277,0.0,2.0,85,0.00,,---,0.00,VWS V14.00,2013-08-13 02:50:00,
2013-08-12 22:56:00,69.4,64.4,29.88,WNW,296,1.0,4.0,84,0.00,,---,0.00,VWS V14.00,2013-08-13 02:56:00,
2013-08-12 23:00:00,69.4,64.4,29.88,WNW,296,1.0,4.0,84,0.00,,---,0.00,VWS V14.00,2013-08-13 03:00:00,
2013-08-12 23:01:00,69.3,64.3,29.88,WNW,296,0.0,3.0,84,0.00,,---,0.00,VWS V14.00,2013-08-13 03:01:00,
2013-08-12 23:06:00,69.1,63.7,29.89,WNW,296,0.0,3.0,83,0.00,,---,0.00,VWS V14.00,2013-08-13 03:06:00,
2013-08-12 23:11:00,68.8,62.7,29.89,WNW,295,2.0,7.0,81,0.00,,---,0.00,VWS V14.00,2013-08-13 03:11:00,
2013-08-12 23:16:00,68.8,61.3,29.89,NW,306,1.0,10.0,77,0.00,,---,0.00,VWS V14.00,2013-08-13 03:16:00,
2013-08-12 23:21:00,68.9,61.0,29.89,NW,320,1.0,10.0,76,0.00,,---,0.00,VWS V14.00,2013-08-13 03:21:00,
2013-08-12 23:26:00,68.8,60.6,29.89,NW,306,4.0,10.0,75,0.00,,---,0.00,VWS V14.00,2013-08-13 03:26:00,
2013-08-12 23:30:00,68.7,60.5,29.89,NW,312,3.0,10.0,75,0.00,,---,0.00,VWS V14.00,2013-08-13 03:30:00,
2013-08-12 23:31:00,68.6,60.4,29.89,NW,324,2.0,6.0,75,0.00,,---,0.00,VWS V14.00,2013-08-13 03:31:00,
2013-08-12 23:36:00,68.5,60.3,29.89,NW,316,3.0,7.0,75,0.00,,---,0.00,VWS V14.00,2013-08-13 03:36:00,
2013-08-12 23:41:00,68.3,60.5,29.89,NW,315,4.0,7.0,76,0.00,,---,0.00,VWS V14.00,2013-08-13 03:41:00,
2013-08-12 23:46:00,68.0,60.2,29.89,NNW,334,1.0,7.0,76,0.00,,---,0.00,VWS V14.00,2013-08-13 03:46:00,
2013-08-12 23:56:00,67.6,60.1,29.88,NNW,333,1.0,7.0,77,0.00,,---,0.00,VWS V14.00,2013-08-13 03:56:00,